sat.trackr.live / text

‹ back to catalog

STARLINK-31391

NORAD 59406 · 2024-064J

PAYLOAD ACTIVE UNKNOWN

§ Identity

Operator
Country
US
Launch date
2024-04-05
Launch site
AFETR
Launch vehicle
Mass (kg)
RCS (m²)

Purposes: comms

External: N2YO · Heavens-Above · Gunter

§ Orbital elements

Epoch: 2026-09-21T16:24:28.438272Z

Period
94.27 min
Inclination
43.0031°
Eccentricity
0.0001238
Mean motion
15.27574450 rev/d
Perigee alt
482.2 km
Apogee alt
483.9 km
Semi-major
6,861.2 km
B*
2.4192e-6
RAAN
29.0289°
Arg perigee
245.5006°
Mean anomaly
114.5717°
Rev number
13,920

§ Raw data

STARLINK-313911 59406U 24064J   26264.68366248 -.00000196  00000+0  24192-5 0  99922 59406  43.0031  29.0289 0001238 245.5006 114.5717 15.27574450139204

JSON: /api/v1/satellites/59406 · /tle

For live sub-satellite position, see the globe view (requires WebGL).

§ Visibility from observer

Set your observer location to see the next 7 days of passes ≥ 10°. The values pass through the URL so the page stays shareable.

No JS? Fill the form by hand. The geolocation button needs JavaScript.